Location: *
(48.8780°N, 19.2358°E)
Time: 18:22:59
(UTC+00:00)

FALCON 9 DEB - Pass Details

Date: 18 October 2019
Orbit: 430 x 445 km, 53.0° (Epoch: 12 November)

Event Time Altitude Azimuth Distance (km) Brightness Sun altitude
Rises 17:13:30 0° 292° (WNW) 2,418 8.3 -14.7°
Reaches altitude 10° 17:15:38 10° 297° (WNW) 1,551 7.0 -15.1°
Maximum altitude 17:19:05 60° 18° (NNE) 508 3.3 -15.6°
Enters shadow 17:20:15 36° 82° (E) 709 3.6 -15.8°
